NOAA 16 DEB, 41206

Orbit data source: Space-Track

NOAA 16 DEB, 41206 is space debris in LEO originally from a launch on Thu, 21 Sep 2000 UTC launched from the Air Force Western Test Range (AFWTR). Debris objects in space refer to the collection of defunct objects orbiting the Earth. Examples of debris include non-operational satellites, rocket bodies, and fragments generated from explosions, collisions, or faulty payload assembly.

Loading next visibility...
NOAA 16 DEB details
Identifier
41206, 2000-055DK
Orbit
LEO
Last TLE update2 days ago
Origin
Flag of USNOAA (US)
ManufacturerUnknown
MissionSpacecraft
Bus & MotorUnknown
MassUnknown
Launch date (UTC)
2000-09-21 (24 years ago)
Launch vehicleUnknown
Launch site
Air Force Western Test Range (AFWTR)
Object type
Payload
Rocket body
Debris
Shape & HBRUnknown
Radar Cross SectionSmall (<0.1 m²)

Expand to show TLE details & history

TLE from 2 days ago
0 NOAA 16 DEB
1 41206U 00055DK  24338.29030024  .00007581  00000-0  34894-2 0  9994
2 41206  98.6463  19.0262 0011529 349.0279  11.0645 14.21335474462758
Epoch: 2024-12-03T06:58Z
Definitive object data (Epoch: 2024-12-03T06:58:01.94Z)
Latitude-0.00007°
Longitude-158.0838°
Altitude815.611 km
Speed7.45 km/s
True Right ascension01h 16m 06s
True Declination0° 00' 00"
Sunlit
Object was in full shadow at TLE epoch
Visualization TLE readout
Latitude55.48466°
Longitude-168.91851°
Altitude827.471 km
Speed7.446 km/s
Apparent Right ascension18h 34m 47s
Apparent Declination34° 00' 58"
Sunlit
Object is in full shadow
Visualization observer readout
Local Sidereal Time02:48:17
Azimuth316.192° NNW
Elevation0.531°
Doppler factor1
Orbital elements
Apogee altitude826.29 km
Perigee altitude809.697 km
Semi-major axis7,196.131 km
Eccentricity0.0011529
Inclination98.6463°
RAAN19.0262°
Arg. of periapsis349.0279°
True anomaly11.08989°
Mean anomaly11.0645°
Eccentric anomaly11.07719°
Mean motion3.55545 °/min
BSTAR0.0034894
Orbital period101.25 mins
Loading maneuver chart data...
Loading historical data...
Loading historical data...
Loading historical data...
Loading historical data...
Loading historical data...
Loading historical data...
Loading historical data...

NOAA 16 DEB Visibility forecast

Observer location: undefined°, undefined

Span
Click to sort rows by Start time (UTC) header in descending order
Start Az.
Max El. time (UTC)
Max El. Az.
Max El.
End time (UTC)
End Az.
10 mins2024-12-05 15:17:48.753Z26.723° NE2024-12-05 15:22:48.753Z98.833° ESE35.513°2024-12-05 15:27:48.753Z171.453° S
6 mins2024-12-05 16:59:48.753Z334.67° NNW2024-12-05 17:02:48.753Z291.807° WNW21.489°2024-12-05 17:05:48.753Z252.006° W
8 mins2024-12-06 02:40:48.753Z152.707° SSE2024-12-06 02:43:48.753Z110.567° ESE42.25°2024-12-06 02:48:48.753Z352.579° N
|